Wind_Speed
23 23 22 21 19 18 18 17 14 11 9 9 10 11 10 9 8 6 5 3 4 4 5 5 5 5 6 7 8 7 6 7 8 9 9 9 8 6 4 4 4 4 4 3 4 4 4 4 5 6 5 5 5 5 3 3 3 4 5 6 5 5 5 4 2 3 8 10 11 11 11 10 9 8 8 8 8 7 6 4 3 2 2 1 2
25 25 24 23 21 19 18 17 15 13 11 12 12 12 11 8 7 5 3 3 3 4 5 6 6 6 7 8 9 9 8 9 9 10 10 10 8 7 5 5 5 6 7 7 5 5 5 4 5 5 5 4 4 3 3 3 4 6 7 7 7 7 8 8 7 5 5 9 11 12 12 11 10 9 9 8 8 7 6 5 4 3 2 2 3
27 26 25 24 22 19 19 18 17 15 13 13 13 12 11 8 7 5 2 2 2 4 5 6 7 7 8 9 10 10 11 11 11 12 12 12 10 8 7 7 7 7 8 9 8 6 6 5 5 5 5 5 4 4 5 6 7 8 9 10 11 11 12 13 12 8 6 7 10 12 13 13 11 11 10 10 9 8 7 7 6 5 4 3 4
26 26 26 24 21 19 20 20 19 16 14 14 12 10 9 7 6 4 3 2 3 5 6 7 8 9 9 10 11 12 13 13 13 14 14 13 12 10 10 9 8 7 7 7 8 8 7 7 7 6 6 6 6 6 6 6 7 8 8 10 12 12 14 16 16 12 9 7 8 10 12 12 12 12 13 12 11 10 9 9 8 7 7 6 6
23 23 23 22 21 20 21 22 20 18 16 14 12 9 8 7 6 5 4 4 4 6 7 8 9 10 10 11 12 13 14 15 15 14 13 13 12 11 10 9 8 7 7 6 6 7 8 8 8 8 7 7 6 6 6 7 7 8 8 8 9 9 10 14 16 15 12 9 8 10 12 13 13 13 13 13 13 11 11 10 9 10 9 9 9
20 20 20 21 21 22 23 23 22 20 18 16 13 10 8 7 6 6 5 4 6 7 8 9 10 11 12 13 14 15 15 15 15 14 13 12 11 10 10 9 8 8 7 7 6 6 7 7 8 7 7 6 7 7 8 8 8 8 8 8 8 8 8 9 12 14 13 11 9 11 13 14 15 15 14 14 13 12 11 11 11 12 12 11 11
17 18 20 21 22 23 24 25 24 22 21 20 17 13 10 9 8 7 5 4 5 7 9 10 11 11 13 14 15 16 16 15 14 13 12 12 11 10 9 8 8 7 7 6 6 6 6 6 6 6 6 7 7 8 9 9 8 9 9 9 8 8 8 8 9 12 13 13 11 12 14 16 17 16 16 16 15 14 13 13 13 13 13 12 13
16 17 19 20 22 23 24 25 25 25 23 20 19 17 13 12 11 8 4 3 4 7 9 10 11 12 13 15 16 17 16 15 13 12 11 11 10 8 7 6 5 5 6 6 7 6 5 5 5 6 6 7 7 8 8 9 10 10 10 10 10 10 10 11 11 13 14 15 14 13 14 16 18 17 17 17 17 17 15 14 14 14 13 13 14
16 18 19 20 21 21 22 24 26 26 23 20 20 21 17 14 12 8 5 3 3 6 9 9 9 11 12 15 16 16 15 14 12 11 10 9 8 7 6 6 5 5 6 7 8 7 6 6 7 7 8 8 8 8 9 9 10 10 11 11 12 12 13 14 15 16 17 18 17 16 15 17 18 18 18 17 17 17 16 15 15 15 14 14 14
16 17 19 20 20 20 21 24 26 24 22 20 21 22 20 15 12 10 9 7 5 7 9 9 9 10 11 12 13 14 13 12 11 10 9 8 8 7 7 7 6 7 7 7 7 6 6 7 7 7 8 9 9 9 10 10 10 11 12 12 13 13 14 15 16 17 19 20 20 19 18 18 19 19 18 17 16 17 17 16 16 16 16 15 15
13 15 17 19 20 21 24 26 25 22 21 19 18 20 20 18 15 14 13 11 10 10 11 10 10 10 10 11 11 11 11 10 9 9 8 8 8 8 8 8 8 8 8 8 8 8 9 10 10 10 10 11 11 12 12 13 13 14 14 14 15 15 15 15 16 17 18 20 21 21 21 21 20 20 19 18 18 19 19 18 18 18 18 17 16
12 14 17 19 20 21 22 23 23 23 22 19 16 17 20 21 21 18 15 13 14 13 13 12 12 11 11 12 12 12 11 10 9 9 10 10 10 11 11 12 12 12 12 12 12 12 13 13 13 13 13 13 14 15 15 16 16 17 17 17 17 17 18 17 18 18 19 20 21 23 23 22 22 22 21 20 20 20 21 21 20 20 19 18 17
11 12 14 16 17 18 18 18 21 22 21 19 18 18 21 24 23 20 17 16 16 15 14 15 15 14 14 14 15 15 14 13 12 12 12 12 13 14 14 15 16 16 16 16 16 16 16 16 17 17 16 16 17 17 18 18 19 19 19 19 19 19 20 20 20 21 22 23 23 24 23 23 23 23 23 23 22 22 23 22 21 20 18 18 18
11 11 11 12 14 17 18 18 18 18 18 18 17 18 20 22 21 19 18 17 16 15 15 16 16 16 16 16 16 16 16 15 14 14 14 14 14 15 16 16 17 17 17 18 18 19 19 19 20 20 19 19 19 20 20 20 21 21 21 21 20 21 22 22 23 23 24 26 28 28 27 25 24 23 23 24 24 23 22 21 20 19 19 18 19
14 12 12 13 15 17 18 17 16 15 15 15 15 16 18 20 18 15 15 16 16 16 16 16 16 16 16 16 17 17 17 17 16 16 16 15 15 15 16 16 17 18 19 19 20 21 21 22 22 22 22 21 21 21 21 22 22 23 24 24 24 23 24 24 25 25 26 28 29 29 29 28 27 25 23 24 25 23 21 20 19 19 19 19 20
18 17 16 16 16 17 17 16 15 13 13 13 14 16 17 18 17 15 15 16 17 17 17 16 16 16 16 16 16 16 17 18 18 18 18 18 18 17 17 18 19 20 20 21 22 22 23 24 24 24 24 23 23 23 23 24 25 26 27 28 28 28 27 26 26 26 27 29 29 28 28 26 24 24 24 24 23 22 21 21 20 20 20 20 20
21 20 20 19 18 17 15 14 14 13 12 12 14 16 16 16 17 17 16 17 18 18 18 17 16 16 16 16 16 17 17 18 18 19 20 20 20 20 21 21 22 22 22 22 23 24 25 25 25 26 26 26 25 25 25 26 27 28 29 30 31 31 30 29 29 28 28 29 30 30 28 25 21 20 21 22 21 21 20 20 19 19 18 17 17
20 20 20 19 18 17 16 15 14 13 12 11 12 12 13 13 14 15 14 15 15 15 15 15 16 16 16 17 17 17 17 18 17 18 18 19 19 20 21 22 23 23 23 22 22 22 22 23 23 24 25 25 25 25 26 28 29 29 30 30 31 32 30 30 29 29 28 29 30 29 27 24 22 20 19 19 19 19 18 17 17 16 15 14 14
17 16 15 14 13 13 12 12 12 11 11 11 11 10 10 9 9 10 11 12 12 12 11 12 12 13 14 14 15 15 15 15 15 16 16 17 17 18 18 19 19 19 20 20 19 17 17 17 18 20 21 22 23 24 25 27 28 28 28 30 31 31 29 28 28 29 29 29 28 25 23 23 22 20 17 16 15 15 14 14 14 14 13 13 14
12 11 10 9 8 7 6 6 5 5 5 6 6 5 4 4 4 5 6 8 9 10 11 10 11 12 12 12 13 13 14 14 15 15 16 17 17 18 18 19 19 19 20 20 20 19 18 17 16 17 18 20 20 21 23 25 26 27 28 29 30 29 27 26 27 28 29 28 25 23 22 22 21 20 17 16 15 14 14 13 13 13 13 13 13
8 8 6 5 4 3 2 1 0 1 2 3 3 4 4 5 6 6 7 7 8 9 10 10 11 12 12 13 14 14 15 16 17 17 18 18 19 20 20 21 22 23 23 23 24 24 23 22 20 18 19 20 20 21 22 23 25 27 28 28 28 27 25 24 25 26 27 25 23 23 22 21 20 19 17 17 16 14 13 12 11 12 12 13 13
8 8 7 6 5 4 4 4 4 4 4 5 6 7 9 11 13 14 15 16 16 16 16 16 16 16 16 17 17 18 18 19 20 21 22 22 22 23 23 23 24 26 27 27 27 27 27 27 26 24 24 23 22 22 23 23 25 27 27 26 26 25 23 23 23 25 25 24 23 22 21 19 18 18 17 17 15 13 11 11 10 11 12 13 13
10 9 8 8 7 7 7 7 7 7 7 7 8 8 9 11 13 15 16 18 20 21 23 23 24 23 24 24 24 24 24 24 24 25 26 27 27 27 27 27 28 29 30 31 31 31 31 31 30 30 29 27 26 24 24 25 26 26 27 26 24 23 23 23 23 24 24 24 23 21 19 18 18 17 16 15 12 11 10 10 11 12 13 13 13
10 9 9 9 9 9 9 9 9 9 9 10 10 10 11 12 13 14 15 16 17 18 20 21 23 24 25 26 27 27 27 27 27 28 28 29 29 30 30 30 30 31 32 33 33 33 34 33 32 32 31 30 29 28 28 28 27 27 27 26 24 23 23 23 23 23 22 22 21 20 19 18 17 16 13 12 10 10 10 10 11 12 12 13 14
10 10 10 10 10 10 10 10 10 11 11 12 12 13 13 13 14 15 15 16 17 17 18 19 20 22 23 24 25 26 26 26 27 27 28 28 28 29 29 30 30 31 32 33 33 34 34 33 33 32 32 31 31 31 31 30 28 27 27 27 27 26 23 23 26 26 23 22 21 19 19 18 15 13 11 10 10 10 11 11 12 12 12 13 15
11 11 11 10 10 10 11 11 12 12 13 14 15 15 16 16 16 16 17 17 17 18 18 19 19 20 21 23 23 23 24 24 24 25 26 27 27 27 28 28 28 29 30 30 30 31 31 30 30 30 30 31 31 31 31 31 30 28 28 28 29 27 24 26 30 27 23 22 20 19 18 17 14 11 11 11 11 11 11 11 11 11 12 13 15
11 11 11 10 11 11 11 12 12 13 14 14 14 15 16 16 16 16 17 17 17 17 18 18 19 20 21 21 22 22 22 21 22 23 24 25 26 25 25 25 25 26 26 27 27 28 28 28 26 25 25 26 27 28 28 28 29 29 29 31 31 29 26 27 28 24 22 22 21 19 18 15 12 12 12 12 12 11 11 11 11 11 12 13 14
14 13 13 12 12 12 12 12 13 13 13 14 14 14 14 14 14 14 15 16 16 16 17 17 18 19 20 21 21 22 21 20 21 22 23 24 25 25 24 24 24 24 24 24 25 26 26 26 24 23 22 22 22 23 22 22 23 23 25 29 30 29 26 26 25 24 24 23 20 18 16 14 13 13 13 12 11 10 10 10 10 11 12 13 14
16 16 15 14 13 13 12 12 12 12 11 12 12 13 14 14 13 13 14 15 17 17 18 18 19 20 21 21 22 23 22 21 21 21 21 21 22 24 24 23 23 22 22 22 23 24 24 24 23 22 20 19 18 18 18 18 18 18 19 21 22 22 23 24 25 26 25 22 17 16 15 14 14 13 12 11 9 9 9 9 9 11 12 13 14
17 17 17 15 14 13 12 12 12 12 12 11 11 11 12 13 14 14 14 15 16 18 19 19 20 22 23 23 23 24 25 24 22 21 20 20 19 20 21 21 21 21 21 21 22 22 23 22 22 21 20 18 16 16 16 17 17 16 14 15 16 16 18 22 24 23 20 17 15 15 14 13 13 12 10 9 7 7 7 8 10 11 12 13 14
18 18 18 16 14 13 13 12 13 13 13 12 12 12 12 12 12 13 14 14 15 16 17 18 19 20 22 23 23 23 22 21 20 19 19 19 19 19 19 19 19 19 20 21 22 22 21 21 21 21 20 18 16 15 15 15 15 14 13 14 15 15 18 22 22 19 16 15 15 15 14 13 12 10 8 6 5 6 7 8 10 11 12 13 13
20 20 19 17 14 13 12 12 12 13 13 13 13 13 12 11 10 10 12 14 14 15 15 16 16 17 18 19 19 18 17 16 16 16 17 17 18 18 18 18 17 17 18 20 22 21 20 21 21 21 20 19 17 15 15 15 16 16 16 16 17 19 21 21 19 16 16 16 16 15 13 12 9 7 5 5 5 5 7 9 10 11 12 12 13
21 21 20 18 14 12 12 12 12 12 13 13 13 14 14 14 13 12 13 14 13 12 12 13 14 15 15 15 16 16 16 16 16 16 16 15 14 14 14 14 14 14 15 18 20 21 20 20 20 20 21 20 17 16 17 17 18 18 18 18 20 21 20 18 16 16 16 15 14 13 11 8 6 5 5 4 5 5 7 8 10 11 12 12 12
21 22 21 19 15 12 12 12 12 12 13 13 13 14 15 17 17 17 17 16 15 13 11 12 14 15 15 16 16 17 17 17 17 17 17 16 15 14 14 13 12 13 14 16 18 19 20 21 21 21 20 18 17 16 17 19 20 20 20 20 22 21 19 17 17 17 15 14 12 9 6 5 5 5 5 5 5 5 6 8 10 11 11 11 11
20 21 21 19 14 12 11 11 11 12 13 13 14 15 16 17 19 19 19 19 18 16 15 15 15 15 16 17 18 18 17 16 16 17 16 16 16 16 16 15 13 13 14 16 17 18 18 20 22 22 19 16 16 18 18 20 23 24 24 23 21 19 18 18 17 16 14 11 9 6 5 5 5 5 5 5 4 4 6 8 9 9 9 9 9
18 20 20 17 13 11 11 11 11 12 13 13 14 15 15 17 18 18 17 17 16 16 17 16 15 15 17 17 17 16 15 14 15 16 17 17 17 17 17 17 15 14 14 16 17 17 17 18 21 22 19 15 15 17 19 22 24 25 24 22 19 19 19 18 16 14 12 10 8 6 5 5 5 5 4 3 3 4 6 7 8 8 7 5 5
17 18 19 16 12 11 11 11 11 13 13 13 13 14 14 16 17 16 15 14 14 15 16 16 15 15 16 17 17 15 14 13 14 15 17 18 18 18 18 18 17 16 14 14 16 17 16 16 18 21 20 17 16 18 20 24 25 24 21 20 19 18 18 17 15 14 12 9 7 5 4 4 4 4 3 3 3 4 5 6 5 5 4 3 5
15 16 15 14 12 12 12 12 12 14 14 12 12 12 13 14 14 14 14 14 15 15 15 15 15 15 16 16 15 14 13 12 12 13 15 17 17 16 14 14 15 16 15 15 16 17 17 16 17 19 19 17 16 18 21 24 25 23 22 21 20 18 18 17 15 14 11 8 5 4 4 3 3 3 3 2 3 4 4 4 3 3 4 4 5
13 13 12 11 10 11 12 12 13 15 15 12 10 10 11 11 12 13 13 14 14 14 14 13 13 13 14 14 13 14 14 14 14 15 17 19 19 18 15 13 12 12 13 13 15 16 15 14 14 15 14 13 13 16 19 22 24 24 23 21 19 18 17 16 14 12 9 6 5 4 3 3 2 2 2 2 3 4 3 2 3 4 5 5 4
11 12 10 9 8 9 10 11 12 14 15 12 10 9 9 10 11 12 13 13 13 13 12 11 11 12 13 14 15 16 17 17 17 18 19 19 19 18 16 14 11 10 10 11 12 12 12 11 11 11 10 11 11 13 18 23 24 23 21 18 16 15 15 14 12 10 8 6 5 4 2 1 1 1 2 3 3 2 1 2 3 5 6 6 4
11 11 10 8 7 7 8 10 11 13 15 12 9 7 8 9 11 12 12 12 12 12 11 12 12 14 15 17 18 18 19 19 19 20 20 20 19 18 16 14 12 10 10 10 9 8 8 9 8 8 9 10 9 12 19 23 21 19 18 17 15 15 15 13 11 9 7 6 4 2 0 1 1 2 2 3 3 1 2 2 4 6 6 5 4
10 11 10 8 7 6 7 9 10 13 15 12 6 6 7 9 10 11 12 12 12 13 14 15 17 18 18 18 18 18 19 21 22 22 22 22 20 17 16 15 13 10 9 10 9 5 2 4 5 5 5 5 10 16 21 21 19 18 17 16 15 14 13 12 11 8 7 5 2 1 2 2 2 2 2 3 2 1 2 4 6 5 4 4 4
9 11 11 9 6 6 7 8 9 13 13 7 4 6 8 9 10 11 12 12 12 13 15 16 17 18 18 18 18 19 20 21 22 23 24 25 24 21 18 17 16 15 13 12 10 7 4 1 2 2 2 6 10 14 17 18 19 18 15 13 13 13 12 11 10 7 6 4 2 3 3 3 2 1 2 2 1 1 2 4 4 3 3 4 4
7 11 12 10 7 7 8 8 9 11 9 4 7 7 8 9 9 10 10 10 11 12 14 15 15 16 16 17 17 18 19 20 21 22 24 26 27 26 23 20 18 17 16 14 12 10 8 5 3 4 7 8 9 11 14 16 16 14 11 11 12 12 11 10 8 6 4 4 3 3 2 1 1 1 2 2 1 2 2 3 3 3 5 6 5
5 9 11 10 9 9 9 8 8 9 7 5 8 7 7 8 9 9 10 11 11 12 13 14 14 15 15 16 17 17 18 19 20 21 22 23 24 25 24 22 20 19 18 18 16 15 14 12 11 12 13 14 14 15 16 16 14 13 12 11 10 9 9 8 5 3 3 3 2 2 1 1 1 2 2 1 4 3 2 3 3 4 5 5 5
4 7 9 9 8 8 9 8 8 8 7 6 8 7 7 8 8 9 11 12 12 12 12 12 14 14 15 15 15 15 16 17 17 18 19 20 21 21 21 20 20 19 19 18 16 16 16 16 15 16 17 17 17 17 16 15 14 13 12 11 9 8 7 5 3 3 3 2 1 1 1 2 2 1 1 4 6 3 3 4 3 3 3 3 4
3 5 7 8 7 7 8 8 8 7 6 6 6 6 6 7 8 9 10 11 11 11 11 11 12 14 14 13 13 14 14 15 15 15 16 18 19 18 17 17 16 16 16 15 14 14 15 16 17 18 18 18 17 15 14 12 10 9 8 8 7 6 5 4 3 2 2 3 3 4 5 5 6 6 6 5 4 2 2 0 3 4 3 2 2
2 4 6 7 6 5 6 7 7 6 5 5 5 6 6 6 6 8 8 9 10 10 10 11 11 12 12 12 12 13 14 14 14 14 15 16 17 17 16 15 13 12 12 13 14 14 15 16 16 16 15 15 14 12 11 9 8 6 6 6 6 5 5 5 4 5 5 6 7 7 8 8 8 8 8 7 4 1 1 2 3 4 4 2 1
2 3 4 5 5 4 3 5 6 6 5 4 4 5 5 5 5 6 6 7 9 9 10 10 11 10 11 12 12 12 13 13 12 13 14 14 14 14 14 14 13 11 11 11 13 13 13 13 12 12 12 12 11 11 10 9 8 8 8 8 8 8 9 9 8 9 9 9 8 8 8 8 8 8 8 8 6 3 3 2 3 6 7 5 1
4 4 4 4 5 3 2 3 4 5 5 4 3 3 3 3 3 3 4 6 7 8 8 9 10 10 11 12 12 13 13 13 13 12 12 11 11 12 12 12 11 10 10 10 10 11 12 12 12 12 12 12 12 11 11 11 11 11 12 12 12 11 10 10 9 9 9 8 7 7 7 7 8 8 7 6 6 4 4 5 5 7 9 8 4
6 6 5 4 4 3 3 2 2 3 3 4 3 2 1 2 3 4 4 5 6 5 6 7 7 8 9 10 11 12 13 13 13 13 12 10 10 10 10 11 11 11 10 10 10 10 12 12 13 13 12 11 11 11 11 11 12 12 11 11 10 9 9 8 8 7 7 6 6 6 6 6 6 6 5 5 5 4 5 5 6 6 7 7 5
Wind_Direction
197 200 199 198 199 199 202 202 195 194 201 202 201 195 184 177 176 168 156 168 202 213 216 214 209 203 187 168 161 157 147 148 160 166 163 162 164 169 176 181 198 208 192 167 142 128 111 116 136 140 134 125 119 121 136 170 214 240 252 261 269 273 262 251 252 186 175 177 182 180 177 177 178 178 177 178 181 187 195 208 216 217 218 242 346
199 200 200 201 202 202 203 199 192 194 196 192 193 188 179 176 181 179 165 161 188 211 214 216 216 208 190 176 168 166 164 159 162 162 158 158 160 162 165 163 169 183 187 185 172 158 151 146 149 152 152 151 154 168 198 233 252 259 259 259 259 261 261 253 241 231 211 194 188 186 184 181 181 183 182 179 184 193 204 218 232 241 249 288 319
199 199 200 202 203 202 202 196 194 196 192 187 190 185 177 177 182 185 187 172 196 216 213 218 222 211 191 181 174 171 171 167 163 157 152 153 154 154 149 139 136 150 171 185 190 184 179 176 176 180 181 186 203 233 258 267 270 272 271 270 267 261 258 255 246 242 242 218 202 196 190 185 185 184 183 184 188 195 204 217 233 243 255 288 304
199 199 200 204 204 200 197 195 196 196 188 185 189 186 179 180 183 193 206 199 213 220 213 212 216 209 192 181 176 173 170 165 159 153 149 148 149 149 145 138 134 138 150 173 191 198 199 199 202 210 214 220 231 247 265 273 274 275 276 277 277 271 262 256 250 244 246 245 230 211 197 192 190 186 187 192 195 199 208 220 231 240 256 275 283
198 199 202 205 203 199 198 197 197 194 187 184 187 190 188 184 187 204 216 208 214 219 211 206 206 201 188 177 174 171 167 162 158 154 152 151 151 152 150 149 150 151 153 164 181 195 202 208 212 220 227 233 240 249 269 286 289 287 289 291 290 286 269 255 249 244 245 255 254 230 211 203 199 196 196 199 202 207 216 226 231 241 258 268 269
196 198 202 204 204 203 202 202 201 199 195 191 191 198 201 189 193 217 227 213 213 216 209 202 202 198 185 177 175 172 169 166 163 160 159 160 161 161 162 163 166 170 174 177 185 197 206 212 219 227 236 245 257 271 285 295 297 294 298 303 302 300 287 260 245 242 244 250 251 240 229 219 210 207 208 208 210 214 223 232 237 245 256 261 263
198 201 203 206 208 208 207 210 213 212 207 201 198 201 203 192 193 213 229 222 219 221 213 202 199 198 190 182 180 178 176 176 173 171 170 170 173 176 177 180 183 186 191 193 199 210 217 223 229 239 252 264 274 283 291 293 293 291 292 296 297 295 292 277 253 244 246 246 243 241 239 231 221 216 214 215 218 222 228 234 240 245 250 253 257
199 205 207 208 209 210 213 217 220 219 214 205 197 194 192 190 192 201 221 229 232 231 219 204 199 201 197 190 187 185 185 186 184 183 182 184 188 194 198 204 207 209 214 217 219 225 233 244 254 260 264 270 274 279 284 286 286 284 281 283 283 281 280 278 269 261 258 256 251 246 239 234 230 225 221 221 225 229 234 238 242 248 250 250 253
193 200 203 205 207 210 216 220 220 216 209 200 196 193 187 184 185 192 201 203 236 235 217 202 197 200 202 200 197 195 194 197 198 199 203 208 215 224 233 243 255 259 255 245 238 240 252 264 269 268 267 270 274 278 283 285 284 283 279 276 274 271 269 270 270 270 267 262 258 254 245 235 232 230 231 235 238 239 241 244 246 248 250 250 254
191 197 201 207 210 210 215 220 218 212 205 206 211 206 196 185 182 194 201 198 219 224 205 194 192 194 200 204 204 204 203 204 208 212 218 225 230 239 249 260 272 280 276 264 252 254 273 286 288 285 283 283 284 285 289 292 292 290 286 283 279 274 267 263 264 268 268 263 259 258 253 245 239 236 240 246 248 245 246 248 249 248 248 251 256
190 197 204 211 214 214 216 216 211 206 205 210 213 207 200 197 201 209 212 213 222 221 208 202 201 199 204 208 209 210 209 210 214 219 226 235 241 247 253 260 267 274 277 274 271 274 284 293 297 298 298 298 296 295 294 295 297 297 295 292 289 285 279 270 263 263 264 261 257 256 257 256 251 246 245 248 249 248 248 249 249 249 250 252 258
193 200 205 211 215 213 214 209 200 198 199 198 200 205 203 203 208 212 215 218 222 221 219 220 218 217 219 221 220 220 222 227 233 238 245 252 258 262 264 265 266 269 271 273 275 278 285 292 296 298 300 302 301 299 296 294 293 294 294 293 290 288 286 281 273 266 262 260 257 254 255 256 255 253 253 254 254 251 248 247 247 248 250 254 260
178 186 193 203 207 204 201 197 191 194 197 197 206 213 207 206 212 213 214 219 221 223 227 228 226 227 229 229 228 227 230 237 242 245 249 253 257 261 262 264 265 267 270 273 274 276 280 286 291 293 296 297 298 297 295 292 289 288 288 286 284 282 282 282 278 272 266 262 259 257 254 252 252 254 257 257 255 251 248 246 246 247 249 254 261
158 160 168 180 189 192 193 193 191 195 198 199 205 207 205 210 214 211 210 217 222 226 231 231 229 229 231 230 229 230 233 237 239 241 244 246 249 253 256 259 262 265 267 270 272 274 276 279 284 286 287 288 290 291 290 289 288 286 285 283 280 277 275 276 277 276 272 266 260 258 258 256 253 252 254 255 254 251 249 247 246 247 249 256 264
141 142 149 155 164 176 183 185 187 192 195 196 202 204 205 209 209 205 208 216 222 225 226 227 227 229 231 231 231 234 237 238 240 243 246 248 248 250 253 256 260 263 265 267 269 270 272 274 277 280 281 281 283 284 284 284 283 284 286 286 283 279 274 272 274 276 276 272 265 259 258 258 256 251 246 246 247 244 243 243 245 248 253 261 270
119 118 122 126 136 151 164 171 175 180 184 187 194 199 201 204 205 206 208 214 221 224 223 224 227 229 232 234 235 238 241 244 247 250 252 254 255 255 257 258 259 261 263 265 266 267 269 271 273 275 276 278 279 280 280 279 279 280 283 284 284 283 281 278 275 274 274 273 270 265 259 256 253 247 239 235 235 234 234 238 243 250 257 265 273
108 109 109 110 115 124 136 149 155 161 169 174 181 190 195 199 203 205 207 212 218 221 222 227 231 233 237 239 240 243 247 250 253 255 257 258 260 261 262 262 261 262 263 264 266 267 267 268 270 272 274 277 280 279 277 277 276 277 278 280 280 282 282 282 281 277 273 271 269 267 261 251 240 232 228 226 226 227 231 238 246 253 261 269 277
105 106 107 107 109 112 117 126 131 139 151 156 163 175 184 189 195 200 205 210 215 219 223 228 233 238 243 245 245 246 248 249 251 253 254 257 259 260 262 262 262 263 264 266 267 269 270 271 271 273 275 278 280 278 277 276 276 276 277 278 278 279 280 282 281 277 272 269 265 262 256 244 228 216 215 217 221 226 232 241 250 258 265 274 282
101 101 102 103 106 107 110 116 120 125 132 134 138 149 159 169 178 186 196 208 218 226 230 231 235 241 245 245 246 246 245 246 247 249 252 254 256 257 259 261 263 265 267 267 266 267 270 272 274 276 279 281 281 280 279 279 278 278 278 278 277 279 280 280 278 274 270 265 258 250 242 235 228 224 227 231 234 238 245 250 256 263 270 277 284
86 89 92 95 99 101 104 115 123 123 126 131 133 137 145 159 175 186 200 214 223 229 234 236 238 242 245 248 250 250 251 253 254 256 258 261 263 264 265 268 271 271 269 267 266 264 264 265 269 275 279 280 281 281 280 280 281 281 280 279 280 282 283 280 275 271 265 259 252 245 238 235 233 232 236 243 247 249 251 254 258 267 275 281 287
61 63 65 68 71 69 66 92 194 262 252 233 238 257 266 269 271 268 265 264 257 251 252 253 252 253 256 260 263 263 263 266 268 269 269 270 272 274 275 276 276 274 271 269 269 269 269 268 268 270 271 272 273 274 275 276 278 280 280 281 283 284 283 278 272 264 257 250 244 240 236 233 232 233 235 240 244 245 248 256 264 272 279 285 289
38 34 30 23 16 7 355 340 324 313 299 279 268 265 265 268 272 274 277 279 279 277 275 273 272 272 272 273 275 275 274 274 276 278 278 278 279 278 277 278 278 277 277 276 275 276 276 276 275 274 272 270 270 273 275 275 275 275 277 279 282 283 280 273 263 254 249 243 235 230 228 229 230 231 230 232 235 240 249 262 272 278 282 285 286
31 25 18 11 6 359 352 345 337 330 323 314 305 296 288 284 283 281 280 280 279 278 278 277 276 276 276 277 279 280 280 280 280 281 281 282 281 280 279 278 276 276 276 277 277 278 277 277 278 277 275 272 270 272 276 277 277 277 275 274 276 278 275 263 249 241 238 234 227 221 221 225 225 223 222 226 233 246 259 268 274 276 279 283 287
26 17 10 6 3 357 352 347 340 333 328 323 319 315 310 306 302 298 294 290 286 283 282 280 279 278 276 275 276 278 280 280 281 281 280 280 279 279 278 277 276 275 274 274 274 274 274 274 274 274 273 270 268 269 271 273 278 279 276 272 270 271 269 253 237 232 230 226 223 223 222 220 218 217 222 231 242 253 262 267 270 273 278 286 294
17 12 8 4 0 356 351 345 338 332 328 324 320 318 315 312 309 306 303 300 296 293 290 287 285 283 281 278 277 276 277 277 278 278 278 277 276 275 275 275 275 274 273 273 274 274 273 273 271 270 269 268 267 267 266 269 273 275 274 270 266 268 266 245 228 226 227 224 223 224 220 214 211 215 226 238 248 254 258 262 268 276 287 296 302
15 10 7 1 357 351 345 339 335 333 330 326 323 320 318 316 314 312 309 306 303 300 298 295 292 289 287 285 282 280 279 278 278 277 277 277 276 275 274 273 274 274 274 274 274 275 275 274 272 270 269 268 267 268 268 270 272 272 272 269 265 266 261 239 224 221 222 221 218 212 207 206 210 220 233 242 247 251 256 264 274 285 295 302 307
20 13 6 358 351 345 340 337 335 333 331 329 326 323 321 319 318 315 312 308 306 303 302 300 298 295 293 291 290 289 287 285 284 283 282 282 281 280 278 276 276 277 277 277 276 276 277 277 276 275 274 273 273 274 275 277 276 275 273 271 269 268 258 238 224 217 215 214 211 203 200 207 217 226 234 238 242 250 260 270 281 289 297 304 309
25 19 11 3 354 348 344 340 338 336 334 332 329 327 325 324 323 320 315 311 310 308 306 305 302 299 297 296 295 293 293 293 294 292 291 290 289 287 284 280 276 275 277 278 278 277 278 279 280 279 279 278 279 279 280 281 281 279 278 275 271 262 245 226 215 209 206 205 204 202 204 213 220 224 230 235 241 253 264 273 284 293 302 309 314
29 24 19 13 6 359 354 348 345 345 345 344 342 339 337 334 331 328 322 317 315 313 311 310 308 305 304 304 304 304 304 307 307 304 301 298 295 292 289 284 277 272 271 274 276 276 278 280 281 282 282 280 278 278 280 283 283 284 284 276 260 240 222 211 206 201 197 195 200 206 209 213 217 222 229 235 243 258 271 282 293 302 308 314 316
27 25 23 20 15 10 6 1 360 0 0 0 358 353 349 343 335 330 325 320 317 315 313 312 311 311 311 313 314 314 315 317 316 312 307 302 296 291 288 284 277 270 266 267 271 274 276 279 280 283 283 281 278 277 279 280 278 277 270 253 234 217 205 203 203 200 193 193 201 207 209 212 217 222 228 236 249 268 280 291 300 306 311 315 318
23 22 21 20 17 15 12 10 11 12 14 13 9 5 6 4 354 345 341 334 326 322 320 317 316 315 315 316 318 319 321 322 321 318 312 305 299 293 288 281 275 267 261 260 262 266 271 276 278 280 279 278 278 278 279 275 268 257 241 226 215 203 192 191 194 196 196 198 201 203 207 211 213 215 223 239 259 275 287 298 305 307 311 315 319
18 17 17 16 16 15 14 16 20 22 23 22 16 12 16 22 25 22 11 359 346 336 327 321 319 318 318 318 320 324 327 328 327 324 318 312 308 305 299 293 284 273 263 259 260 264 267 271 274 275 274 274 274 273 271 266 254 244 237 226 211 195 187 187 192 197 200 200 200 201 203 205 209 217 230 241 255 274 289 298 302 306 311 316 320
13 12 12 12 13 12 15 21 27 27 23 20 18 16 15 16 20 24 21 13 4 353 338 328 324 325 326 326 327 331 334 336 337 338 334 329 325 322 317 311 301 288 275 266 266 268 269 269 272 273 272 271 270 266 261 253 244 241 240 229 209 194 186 186 191 194 195 196 198 199 201 205 215 226 228 235 254 273 285 292 298 305 311 315 318
9 7 7 9 10 11 17 24 27 23 18 15 13 12 11 9 8 7 7 8 9 10 3 351 342 339 338 337 335 334 335 337 342 346 345 342 337 333 332 329 320 306 292 282 276 275 273 270 270 269 267 266 265 259 252 245 241 237 227 212 200 191 184 184 188 191 192 193 194 194 196 202 209 214 220 234 253 264 278 291 299 304 308 311 316
5 3 4 6 11 15 19 22 20 15 13 11 7 4 3 3 2 2 3 4 7 12 15 12 4 357 350 344 338 333 330 332 335 337 338 338 333 329 328 327 323 313 304 297 292 286 281 275 269 263 261 264 264 256 248 243 237 225 209 198 194 190 185 184 188 189 189 187 184 182 188 198 204 213 222 234 249 268 290 299 300 301 306 314 320
3 1 2 7 15 18 19 20 14 7 4 3 0 357 356 358 0 2 5 5 7 10 14 16 15 10 3 0 356 348 341 339 338 335 333 330 324 319 316 314 313 309 304 301 300 298 295 287 276 267 260 255 253 251 245 237 225 210 197 192 194 191 186 182 181 179 177 177 181 187 194 203 209 213 220 236 262 290 304 303 299 301 312 326 344
2 0 3 10 16 16 16 16 10 1 356 354 353 352 353 358 4 8 10 11 11 11 11 12 16 17 16 18 18 14 8 3 355 345 338 332 323 313 303 298 298 298 295 294 296 297 298 296 289 283 275 262 249 241 236 227 215 201 193 191 190 185 180 176 175 177 177 178 183 186 187 191 200 211 229 255 281 303 310 307 307 316 339 23 37
2 1 5 12 16 16 17 16 9 3 360 355 351 351 356 7 15 20 20 18 16 14 14 16 20 24 25 25 24 21 19 15 6 357 353 351 348 339 322 307 299 296 292 288 288 291 294 297 295 289 283 272 253 237 229 223 213 200 190 185 182 181 180 181 181 180 176 168 160 160 168 181 202 223 243 269 298 314 318 322 344 29 48 54 48
2 2 6 10 12 15 17 14 7 3 3 2 357 356 6 20 28 27 25 21 16 17 23 28 31 32 29 26 24 23 22 20 16 12 11 10 9 6 358 345 328 314 302 293 288 288 291 294 294 288 278 268 255 241 230 219 207 195 187 186 187 186 183 181 176 166 153 143 144 154 165 185 211 233 264 307 325 333 347 22 47 50 56 61 54
2 2 7 9 7 7 10 8 0 353 353 0 6 9 19 34 36 31 28 25 20 23 30 32 31 30 25 24 25 25 22 20 18 16 15 13 10 8 6 1 352 340 328 314 303 294 286 285 297 300 280 259 252 240 220 206 197 192 191 192 188 178 168 163 156 147 141 142 149 155 165 193 228 284 331 337 341 359 63 87 52 41 48 56 47
4 6 9 10 7 2 359 359 352 341 341 354 14 26 33 41 42 37 34 33 33 36 37 35 34 34 31 31 30 26 21 20 19 16 14 13 12 12 13 9 358 343 334 331 326 308 280 271 286 298 279 256 235 206 196 195 193 192 191 185 173 162 157 154 150 147 149 151 153 150 3 326 328 342 341 337 344 30 103 78 47 44 45 41 27
6 11 12 9 6 0 355 355 346 332 333 347 24 56 51 51 52 48 47 48 48 48 48 47 46 43 39 37 34 27 24 26 26 23 20 19 21 25 27 24 18 11 4 3 5 2 308 254 257 270 260 217 184 182 190 196 195 189 183 173 159 153 153 153 151 151 156 163 177 317 341 345 346 341 331 328 337 86 86 52 48 51 45 28 21
7 14 13 5 357 355 356 356 343 330 331 350 73 79 63 63 63 56 54 56 56 56 56 54 50 46 43 41 37 32 32 34 35 34 34 33 33 36 38 37 36 34 31 28 27 32 46 102 222 233 165 157 173 186 194 193 186 179 171 158 148 148 152 153 150 149 161 189 260 319 332 332 329 318 317 321 318 105 50 47 57 63 53 46 38
6 17 15 11 12 11 8 5 353 341 344 45 100 83 67 74 71 59 59 64 62 60 59 54 49 47 46 44 40 37 36 37 37 38 40 38 36 35 38 42 42 39 35 35 38 40 47 66 102 114 112 125 151 166 167 164 162 157 145 136 139 142 143 141 139 146 178 227 279 304 302 298 314 317 315 310 176 148 74 70 86 81 66 59 44
4 18 18 18 23 25 22 23 17 2 7 76 100 86 78 86 79 66 68 71 66 61 57 52 49 51 50 46 44 40 37 34 32 33 35 37 35 33 33 39 44 45 42 43 49 55 62 75 94 106 109 114 123 130 133 133 132 128 125 128 133 132 130 134 143 170 211 243 269 276 265 309 343 316 302 197 170 155 80 71 82 76 69 55 31
2 18 19 18 23 27 29 35 32 21 33 85 102 93 92 97 86 73 74 74 68 63 60 53 51 54 52 48 44 42 39 38 35 33 34 37 38 36 33 34 42 48 50 51 57 66 73 81 92 99 102 104 108 113 117 119 120 122 123 125 128 132 141 157 184 206 213 212 194 164 107 75 67 34 132 161 166 148 79 71 53 37 56 64 31
358 14 15 14 17 25 32 37 36 34 50 85 104 106 107 106 91 77 75 74 70 68 65 59 56 57 55 50 45 43 42 44 43 41 40 40 41 42 40 37 40 50 59 66 74 79 83 87 92 95 96 97 101 105 108 109 110 112 116 123 134 149 165 180 189 184 164 143 130 121 107 94 87 78 83 113 146 140 89 73 318 348 33 108 76
333 354 1 7 9 17 31 38 39 38 50 78 102 113 118 113 97 86 83 77 72 70 68 63 60 59 57 54 50 47 47 48 48 49 48 46 43 44 46 46 48 56 68 81 89 90 89 88 87 86 86 87 89 91 93 94 97 104 115 128 141 148 147 141 132 124 122 119 114 110 102 90 78 71 68 71 77 49 319 281 300 342 20 91 173
276 311 332 353 359 2 24 38 39 40 50 77 104 114 121 121 113 105 98 89 81 76 70 65 63 62 59 57 53 49 47 50 53 56 56 53 47 44 45 50 57 65 73 82 88 88 86 85 84 82 81 81 81 82 83 86 92 100 106 109 114 114 113 112 111 110 111 110 104 97 91 79 68 63 57 52 51 42 16 11 17 19 24 37 76
250 276 298 329 344 348 3 25 33 39 48 70 104 129 144 155 153 134 113 101 93 83 72 66 65 63 62 60 55 50 47 47 49 53 55 55 52 47 45 49 57 65 71 77 83 86 88 88 87 85 84 83 83 85 88 89 94 98 100 101 104 104 103 105 107 106 105 103 96 88 81 70 61 57 49 38 36 29 16 19 24 21 21 30 48
245 260 272 296 322 338 349 359 5 17 33 49 68 85 143 196 196 183 151 127 115 102 85 73 66 64 65 64 58 52 47 44 44 45 47 48 50 51 51 54 59 64 67 71 76 81 85 85 82 80 82 85 87 89 91 92 95 97 98 97 98 99 100 103 107 105 101 97 88 76 67 57 49 44 36 26 20 10 2 4 7 7 8 10 11
Height
1513 1516 1519 1522 1524 1526 1528 1530 1531 1533 1534 1535 1537 1538 1540 1541 1542 1543 1544 1544 1544 1545 1546 1548 1549 1550 1550 1550 1551 1552 1553 1553 1554 1556 1557 1558 1559 1561 1562 1562 1563 1564 1565 1565 1566 1566 1567 1568 1568 1569 1569 1570 1571 1572 1574 1575 1576 1577 1578 1578 1579 1579 1580 1580 1581 1581 1581 1581 1581 1582 1582 1583 1583 1583 1583 1584 1584 1584 1584 1584 1584 1585 1585 1585 1585
1513 1516 1519 1521 1524 1526 1528 1530 1531 1532 1533 1534 1536 1537 1539 1541 1542 1543 1544 1544 1544 1545 1546 1548 1549 1550 1550 1551 1551 1552 1553 1554 1555 1556 1557 1558 1560 1561 1562 1562 1563 1564 1565 1566 1567 1567 1568 1569 1569 1570 1571 1571 1572 1573 1574 1575 1576 1577 1577 1578 1578 1579 1579 1580 1580 1581 1581 1581 1581 1581 1582 1582 1582 1583 1583 1583 1584 1584 1584 1584 1584 1584 1584 1584 1584
1512 1515 1518 1521 1523 1525 1527 1529 1531 1532 1533 1534 1535 1537 1538 1540 1542 1543 1544 1544 1544 1545 1546 1548 1549 1550 1551 1551 1552 1552 1553 1554 1555 1556 1557 1559 1560 1561 1562 1563 1563 1564 1565 1566 1567 1568 1568 1569 1570 1570 1571 1572 1573 1573 1574 1575 1576 1576 1577 1577 1577 1578 1578 1579 1580 1580 1581 1581 1581 1581 1581 1582 1582 1583 1583 1583 1583 1584 1583 1583 1583 1583 1583 1583 1583
1511 1515 1518 1520 1523 1525 1527 1529 1530 1531 1532 1534 1535 1536 1538 1540 1541 1543 1544 1544 1544 1545 1546 1547 1549 1550 1551 1551 1552 1553 1554 1555 1556 1557 1558 1559 1560 1561 1562 1563 1564 1565 1565 1566 1567 1568 1568 1569 1570 1571 1571 1572 1573 1573 1574 1575 1575 1576 1576 1576 1576 1577 1577 1578 1579 1580 1580 1580 1581 1581 1581 1582 1582 1582 1583 1583 1583 1583 1583 1583 1583 1583 1582 1583 1583
1511 1514 1517 1520 1522 1524 1526 1528 1529 1530 1532 1533 1535 1536 1537 1539 1541 1543 1544 1544 1544 1545 1546 1547 1549 1550 1551 1552 1553 1553 1554 1556 1557 1558 1559 1560 1561 1562 1563 1564 1564 1565 1566 1566 1567 1567 1568 1569 1570 1570 1571 1572 1572 1573 1574 1574 1575 1575 1576 1576 1576 1576 1576 1577 1578 1579 1580 1580 1580 1580 1581 1581 1581 1582 1582 1582 1583 1583 1583 1583 1582 1582 1582 1582 1581
1510 1513 1516 1518 1521 1523 1524 1526 1528 1529 1531 1532 1534 1535 1537 1539 1540 1542 1544 1544 1544 1545 1546 1548 1549 1550 1551 1552 1553 1554 1555 1556 1557 1558 1559 1560 1561 1562 1563 1564 1565 1565 1566 1567 1567 1568 1568 1569 1569 1570 1570 1571 1571 1572 1572 1573 1574 1574 1574 1575 1575 1575 1575 1576 1577 1578 1579 1579 1579 1580 1580 1580 1581 1581 1581 1582 1582 1582 1582 1582 1582 1581 1581 1581 1580
1509 1512 1514 1517 1519 1521 1523 1525 1526 1528 1529 1530 1532 1534 1536 1538 1540 1542 1543 1543 1544 1545 1546 1548 1549 1550 1551 1552 1553 1554 1555 1556 1557 1558 1559 1560 1561 1562 1563 1564 1565 1566 1566 1567 1567 1568 1568 1568 1569 1569 1570 1570 1570 1571 1571 1571 1572 1573 1573 1574 1574 1574 1575 1575 1576 1577 1578 1578 1578 1578 1579 1579 1579 1580 1580 1581 1581 1581 1581 1581 1581 1580 1580 1580 1579
1509 1511 1513 1515 1517 1519 1521 1524 1525 1526 1528 1529 1531 1532 1534 1536 1539 1542 1543 1543 1544 1545 1547 1548 1549 1550 1551 1552 1553 1554 1555 1556 1557 1558 1559 1560 1561 1562 1563 1564 1565 1566 1566 1567 1567 1568 1568 1568 1568 1569 1569 1569 1570 1570 1570 1570 1571 1571 1572 1572 1573 1574 1574 1575 1575 1576 1576 1577 1577 1577 1577 1578 1578 1578 1579 1579 1579 1579 1579 1579 1579 1578 1578 1578 1578
1508 1510 1512 1514 1516 1518 1520 1522 1524 1525 1526 1528 1529 1529 1533 1536 1539 1541 1542 1542 1544 1545 1547 1548 1549 1550 1551 1552 1553 1554 1555 1556 1557 1558 1559 1560 1561 1562 1563 1564 1564 1565 1566 1566 1567 1567 1568 1568 1568 1568 1568 1569 1569 1569 1569 1569 1570 1570 1571 1571 1572 1573 1573 1574 1574 1575 1575 1575 1575 1575 1575 1575 1576 1576 1576 1577 1577 1577 1577 1577 1577 1576 1576 1576 1576
1507 1509 1511 1512 1514 1516 1518 1520 1523 1524 1525 1527 1528 1530 1533 1536 1538 1540 1541 1542 1544 1546 1547 1548 1549 1550 1551 1552 1553 1554 1555 1556 1557 1557 1558 1559 1560 1561 1562 1563 1564 1564 1565 1565 1566 1566 1567 1567 1567 1567 1567 1568 1568 1568 1568 1569 1569 1569 1570 1570 1571 1571 1572 1573 1573 1573 1573 1573 1573 1573 1573 1573 1573 1574 1574 1574 1575 1575 1575 1575 1575 1574 1574 1574 1574
1507 1508 1510 1511 1513 1514 1516 1519 1521 1523 1524 1526 1528 1531 1533 1535 1538 1540 1541 1543 1544 1545 1546 1547 1548 1550 1551 1552 1553 1554 1555 1555 1556 1557 1557 1558 1559 1560 1561 1561 1562 1563 1563 1564 1565 1565 1566 1566 1566 1566 1566 1566 1566 1567 1567 1567 1567 1568 1568 1568 1569 1570 1570 1571 1571 1572 1571 1571 1571 1571 1571 1571 1571 1572 1572 1572 1573 1573 1573 1573 1573 1572 1572 1572 1572
1507 1508 1510 1511 1513 1515 1517 1518 1520 1522 1524 1526 1528 1530 1532 1535 1538 1540 1541 1543 1543 1545 1546 1547 1548 1549 1550 1551 1552 1553 1554 1554 1555 1556 1556 1557 1558 1558 1559 1560 1560 1561 1562 1562 1563 1563 1564 1564 1564 1564 1564 1564 1565 1565 1565 1566 1566 1566 1566 1567 1567 1568 1569 1569 1569 1570 1569 1569 1569 1569 1569 1569 1569 1569 1569 1570 1570 1570 1570 1570 1570 1570 1570 1570 1570
1508 1509 1511 1512 1514 1516 1518 1519 1521 1523 1525 1526 1528 1530 1532 1534 1537 1539 1540 1542 1543 1544 1545 1545 1547 1548 1548 1549 1550 1551 1552 1553 1553 1554 1555 1555 1556 1557 1557 1558 1558 1559 1559 1560 1560 1561 1561 1562 1562 1562 1562 1562 1563 1563 1563 1564 1564 1564 1565 1565 1566 1566 1567 1567 1567 1568 1568 1567 1567 1566 1567 1567 1566 1567 1567 1567 1567 1568 1568 1568 1568 1568 1568 1568 1568
1510 1511 1512 1514 1515 1517 1518 1520 1522 1523 1525 1527 1528 1530 1532 1534 1535 1537 1539 1541 1542 1543 1544 1544 1545 1546 1547 1548 1549 1549 1550 1550 1551 1552 1552 1553 1553 1554 1555 1555 1556 1556 1557 1558 1558 1558 1559 1559 1559 1560 1560 1560 1560 1561 1561 1561 1561 1562 1562 1562 1563 1563 1564 1564 1565 1565 1565 1565 1564 1564 1564 1564 1564 1564 1564 1564 1564 1565 1565 1565 1566 1566 1566 1566 1567
1512 1513 1514 1515 1516 1517 1519 1520 1522 1524 1526 1527 1529 1530 1532 1533 1535 1536 1538 1540 1541 1542 1543 1543 1544 1545 1546 1547 1547 1548 1548 1548 1549 1549 1550 1550 1551 1552 1552 1553 1553 1554 1555 1555 1556 1556 1557 1557 1557 1557 1558 1558 1558 1558 1558 1559 1558 1558 1558 1558 1559 1559 1560 1561 1561 1562 1562 1561 1560 1560 1561 1561 1561 1561 1561 1560 1561 1561 1562 1563 1563 1564 1564 1564 1564
1514 1515 1516 1517 1518 1519 1520 1521 1523 1526 1527 1528 1529 1530 1532 1533 1535 1536 1538 1539 1540 1541 1542 1542 1543 1543 1544 1545 1546 1547 1546 1547 1547 1547 1548 1548 1549 1549 1550 1550 1551 1551 1552 1553 1553 1554 1554 1555 1555 1555 1555 1555 1555 1555 1555 1555 1555 1555 1555 1555 1555 1555 1556 1557 1557 1557 1558 1557 1557 1557 1557 1557 1558 1558 1557 1556 1557 1558 1559 1560 1561 1561 1561 1562 1562
1517 1518 1519 1520 1521 1522 1522 1523 1525 1527 1528 1529 1530 1530 1531 1533 1534 1536 1537 1538 1539 1540 1540 1541 1541 1542 1543 1544 1544 1545 1545 1545 1545 1545 1546 1546 1546 1547 1547 1547 1548 1549 1549 1550 1551 1551 1552 1552 1552 1552 1552 1552 1552 1552 1552 1552 1552 1552 1552 1552 1552 1552 1552 1553 1553 1553 1554 1554 1554 1554 1554 1554 1555 1556 1555 1554 1554 1554 1556 1557 1558 1559 1559 1559 1559
1520 1521 1522 1523 1524 1525 1525 1526 1527 1529 1529 1530 1530 1531 1532 1533 1534 1535 1536 1537 1538 1538 1539 1539 1539 1540 1541 1541 1542 1543 1543 1543 1543 1544 1544 1544 1544 1545 1545 1545 1546 1546 1546 1547 1548 1548 1549 1549 1549 1549 1549 1549 1549 1549 1549 1549 1549 1549 1549 1549 1548 1548 1549 1549 1549 1549 1550 1550 1550 1550 1550 1550 1552 1553 1554 1553 1552 1552 1553 1554 1555 1556 1557 1557 1557
1522 1523 1524 1525 1526 1527 1528 1529 1529 1530 1531 1531 1532 1532 1533 1533 1534 1535 1536 1537 1537 1538 1538 1538 1538 1538 1539 1540 1540 1541 1541 1541 1542 1542 1542 1542 1542 1543 1543 1543 1543 1543 1544 1544 1544 1545 1545 1546 1546 1546 1545 1546 1546 1546 1545 1545 1545 1546 1546 1545 1545 1545 1546 1547 1546 1546 1546 1547 1547 1547 1547 1548 1549 1551 1552 1553 1552 1552 1551 1552 1553 1554 1554 1555 1555
1524 1524 1525 1526 1527 1527 1528 1529 1530 1531 1532 1532 1532 1533 1534 1534 1535 1535 1536 1537 1537 1537 1538 1538 1537 1538 1538 1538 1539 1539 1540 1540 1540 1541 1541 1541 1541 1541 1541 1540 1540 1541 1541 1541 1542 1542 1542 1542 1543 1542 1542 1542 1542 1542 1542 1541 1542 1542 1542 1542 1541 1542 1543 1543 1543 1544 1544 1544 1544 1545 1545 1546 1547 1548 1550 1551 1552 1551 1550 1550 1551 1552 1553 1553 1553
1525 1525 1526 1526 1527 1528 1528 1529 1530 1530 1531 1532 1532 1533 1533 1534 1534 1535 1535 1536 1536 1537 1537 1537 1537 1537 1537 1538 1538 1538 1538 1538 1538 1538 1539 1539 1538 1538 1538 1538 1538 1538 1539 1539 1539 1539 1539 1539 1540 1539 1539 1538 1538 1538 1538 1538 1538 1537 1538 1538 1538 1539 1540 1540 1540 1540 1541 1541 1542 1542 1543 1543 1544 1546 1547 1549 1550 1549 1549 1549 1549 1550 1551 1551 1551
1525 1525 1526 1526 1527 1528 1528 1529 1529 1530 1530 1531 1531 1532 1532 1532 1533 1533 1534 1534 1535 1535 1535 1535 1535 1536 1536 1536 1536 1536 1536 1536 1536 1536 1535 1535 1536 1536 1536 1536 1535 1535 1535 1535 1536 1536 1536 1536 1536 1536 1536 1535 1535 1535 1535 1535 1534 1534 1534 1535 1535 1536 1536 1537 1537 1537 1538 1538 1539 1539 1540 1541 1542 1544 1545 1547 1547 1547 1547 1547 1548 1548 1549 1549 1549
1525 1525 1526 1526 1526 1527 1527 1528 1528 1528 1529 1529 1529 1530 1530 1530 1530 1531 1531 1532 1532 1532 1532 1532 1533 1533 1533 1534 1534 1534 1534 1533 1533 1533 1532 1532 1532 1532 1532 1533 1533 1532 1531 1531 1532 1532 1532 1532 1532 1533 1533 1532 1532 1532 1532 1532 1531 1531 1531 1531 1531 1532 1533 1534 1534 1534 1535 1535 1536 1537 1539 1540 1541 1542 1544 1545 1545 1545 1545 1545 1546 1546 1547 1546 1546
1525 1525 1525 1525 1525 1526 1526 1526 1526 1527 1527 1527 1527 1527 1527 1527 1527 1528 1528 1529 1529 1529 1529 1529 1529 1529 1529 1530 1530 1530 1530 1530 1530 1530 1529 1529 1529 1529 1529 1529 1529 1528 1528 1527 1527 1527 1527 1528 1528 1528 1528 1529 1529 1528 1528 1528 1528 1528 1528 1528 1528 1529 1530 1530 1531 1532 1533 1533 1534 1536 1537 1538 1540 1541 1542 1543 1543 1543 1543 1543 1544 1544 1544 1544 1544
1525 1524 1524 1524 1524 1524 1525 1525 1525 1525 1525 1525 1525 1525 1525 1525 1525 1525 1525 1525 1525 1525 1525 1525 1524 1524 1525 1525 1525 1526 1526 1526 1526 1526 1525 1525 1525 1525 1525 1524 1524 1524 1523 1522 1522 1521 1521 1522 1522 1523 1523 1524 1524 1524 1524 1524 1524 1524 1524 1524 1524 1525 1526 1527 1527 1529 1530 1531 1533 1535 1536 1538 1538 1539 1540 1540 1541 1541 1541 1541 1542 1542 1541 1541 1541
1525 1524 1524 1524 1524 1524 1524 1524 1524 1523 1523 1523 1523 1522 1522 1522 1522 1522 1522 1522 1522 1521 1521 1520 1520 1520 1520 1520 1520 1521 1521 1522 1522 1521 1521 1521 1520 1520 1520 1520 1520 1519 1518 1518 1518 1517 1517 1517 1517 1518 1518 1519 1520 1520 1520 1520 1520 1520 1520 1520 1520 1521 1522 1523 1523 1524 1527 1530 1531 1533 1534 1536 1537 1537 1538 1539 1539 1539 1539 1539 1539 1539 1539 1539 1539
1526 1525 1525 1525 1525 1524 1524 1523 1523 1523 1522 1522 1521 1521 1520 1520 1520 1520 1519 1519 1518 1518 1517 1517 1517 1516 1516 1516 1516 1516 1517 1517 1517 1517 1516 1516 1516 1515 1516 1516 1516 1516 1515 1515 1514 1514 1513 1513 1513 1514 1514 1515 1516 1516 1516 1516 1516 1516 1516 1516 1516 1517 1518 1519 1520 1521 1524 1527 1529 1531 1532 1533 1534 1535 1536 1537 1537 1537 1537 1537 1538 1538 1537 1537 1536
1526 1526 1525 1525 1524 1524 1523 1523 1522 1522 1521 1521 1520 1519 1519 1519 1519 1518 1517 1516 1516 1516 1515 1515 1515 1514 1513 1513 1513 1513 1513 1514 1514 1513 1513 1512 1511 1511 1511 1512 1512 1512 1512 1512 1511 1511 1511 1511 1511 1511 1512 1512 1512 1512 1512 1512 1512 1512 1512 1512 1512 1512 1513 1514 1516 1518 1521 1524 1527 1528 1530 1531 1532 1533 1533 1534 1534 1535 1535 1536 1536 1535 1535 1534 1534
1527 1526 1525 1525 1524 1523 1522 1522 1521 1521 1520 1520 1519 1518 1517 1517 1517 1516 1516 1514 1514 1513 1513 1512 1512 1511 1511 1510 1510 1510 1510 1511 1511 1510 1510 1509 1508 1507 1508 1508 1508 1509 1509 1509 1508 1507 1507 1508 1508 1508 1509 1509 1509 1509 1509 1509 1509 1509 1509 1508 1509 1510 1511 1512 1514 1517 1519 1522 1525 1526 1528 1529 1530 1531 1531 1532 1532 1533 1534 1534 1533 1533 1532 1532 1531
1527 1526 1525 1524 1523 1522 1522 1521 1520 1520 1519 1519 1518 1517 1516 1516 1515 1514 1514 1513 1512 1511 1511 1510 1509 1509 1508 1508 1508 1507 1507 1507 1507 1507 1506 1506 1505 1504 1504 1504 1504 1505 1505 1505 1505 1504 1504 1504 1505 1505 1505 1506 1506 1506 1506 1506 1506 1506 1506 1506 1507 1509 1511 1513 1516 1518 1520 1521 1523 1525 1526 1527 1528 1529 1529 1530 1530 1531 1532 1532 1531 1531 1530 1530 1529
1526 1525 1524 1523 1523 1522 1521 1520 1520 1519 1518 1518 1517 1517 1517 1516 1515 1514 1513 1512 1511 1511 1510 1509 1508 1508 1507 1506 1506 1506 1505 1505 1504 1503 1503 1502 1501 1501 1500 1500 1500 1500 1501 1502 1501 1501 1501 1501 1502 1502 1503 1503 1503 1503 1503 1503 1504 1504 1504 1505 1506 1507 1509 1512 1516 1519 1520 1521 1523 1524 1525 1526 1526 1527 1527 1528 1528 1529 1530 1530 1530 1529 1529 1528 1528
1525 1524 1524 1523 1522 1521 1521 1520 1520 1519 1519 1518 1517 1517 1517 1516 1516 1515 1514 1513 1511 1510 1509 1508 1508 1507 1507 1506 1505 1505 1505 1504 1503 1502 1501 1500 1499 1498 1497 1497 1497 1497 1498 1498 1497 1498 1499 1499 1499 1500 1500 1500 1501 1501 1501 1502 1502 1503 1503 1504 1505 1507 1509 1511 1514 1517 1519 1521 1522 1523 1524 1524 1525 1525 1526 1526 1526 1527 1527 1528 1529 1529 1528 1527 1526
1525 1524 1523 1523 1522 1521 1521 1520 1520 1519 1519 1518 1517 1517 1516 1516 1515 1515 1514 1513 1512 1510 1509 1508 1507 1507 1507 1506 1505 1504 1503 1503 1502 1501 1500 1498 1497 1496 1495 1495 1495 1495 1495 1495 1495 1496 1496 1497 1497 1497 1498 1498 1498 1499 1499 1500 1501 1502 1503 1504 1505 1507 1509 1511 1514 1516 1518 1520 1521 1522 1522 1523 1523 1524 1524 1524 1524 1524 1525 1527 1528 1528 1527 1526 1525
1525 1524 1523 1522 1521 1521 1520 1520 1519 1519 1518 1518 1517 1517 1516 1515 1514 1513 1513 1512 1511 1510 1509 1508 1507 1506 1505 1504 1504 1503 1502 1501 1500 1499 1498 1497 1496 1494 1494 1494 1493 1493 1493 1493 1493 1494 1494 1495 1495 1495 1495 1495 1496 1497 1498 1499 1500 1501 1502 1504 1505 1506 1508 1511 1513 1515 1517 1519 1520 1521 1521 1522 1523 1523 1523 1523 1523 1523 1524 1526 1527 1527 1526 1524 1523
1526 1524 1523 1522 1521 1520 1520 1520 1519 1519 1518 1518 1517 1516 1515 1515 1514 1513 1512 1511 1510 1509 1509 1508 1507 1506 1505 1504 1503 1501 1500 1500 1499 1498 1497 1496 1495 1493 1493 1492 1492 1492 1492 1491 1492 1492 1492 1493 1493 1493 1493 1493 1494 1495 1496 1497 1498 1499 1501 1502 1504 1506 1508 1510 1513 1515 1517 1518 1519 1520 1521 1522 1523 1523 1522 1522 1522 1523 1523 1525 1526 1526 1524 1522 1521
1526 1524 1523 1522 1521 1520 1520 1520 1519 1519 1518 1518 1517 1516 1516 1515 1514 1513 1512 1511 1510 1510 1509 1508 1508 1507 1505 1504 1502 1501 1500 1499 1498 1497 1496 1495 1494 1492 1491 1491 1490 1490 1490 1490 1490 1490 1490 1490 1491 1491 1491 1491 1492 1493 1494 1495 1496 1498 1500 1502 1504 1506 1508 1510 1513 1515 1516 1518 1519 1520 1521 1521 1522 1522 1522 1522 1522 1522 1523 1524 1525 1524 1522 1521 1520
1526 1525 1523 1522 1521 1521 1520 1520 1519 1519 1518 1518 1517 1517 1516 1516 1515 1514 1513 1512 1511 1510 1509 1509 1508 1507 1506 1504 1503 1501 1500 1499 1498 1497 1495 1494 1492 1491 1489 1489 1488 1488 1488 1488 1488 1488 1488 1488 1488 1488 1489 1489 1489 1490 1492 1494 1496 1498 1500 1502 1504 1506 1508 1510 1512 1514 1516 1518 1519 1519 1520 1520 1521 1521 1521 1521 1521 1522 1522 1523 1523 1522 1521 1520 1519
1526 1525 1524 1523 1522 1522 1521 1520 1520 1520 1519 1518 1518 1517 1517 1516 1515 1514 1513 1512 1511 1511 1510 1509 1508 1507 1506 1504 1503 1502 1501 1500 1498 1497 1495 1492 1490 1488 1487 1486 1486 1486 1486 1486 1486 1486 1486 1487 1487 1487 1487 1487 1487 1488 1490 1493 1495 1498 1500 1501 1503 1506 1508 1510 1512 1514 1515 1516 1517 1518 1519 1519 1520 1520 1521 1520 1521 1521 1521 1522 1522 1521 1520 1519 1519
1526 1525 1524 1524 1523 1522 1521 1521 1521 1520 1519 1519 1518 1518 1517 1517 1516 1515 1514 1513 1512 1511 1510 1509 1508 1507 1506 1505 1504 1502 1501 1499 1498 1496 1494 1492 1490 1488 1487 1486 1485 1485 1485 1484 1484 1484 1485 1485 1485 1485 1485 1485 1485 1486 1489 1492 1495 1497 1499 1500 1502 1505 1507 1509 1511 1513 1514 1515 1516 1517 1518 1519 1519 1520 1520 1520 1520 1520 1521 1521 1521 1520 1519 1518 1519
1527 1525 1524 1524 1523 1523 1522 1522 1521 1520 1520 1519 1519 1518 1518 1517 1517 1516 1515 1514 1513 1512 1511 1510 1509 1508 1507 1505 1504 1503 1501 1499 1498 1496 1494 1493 1491 1489 1488 1487 1486 1485 1484 1483 1483 1483 1483 1483 1484 1484 1484 1484 1485 1487 1489 1492 1495 1498 1500 1501 1503 1505 1508 1510 1511 1513 1514 1515 1517 1517 1518 1518 1518 1518 1519 1519 1520 1520 1521 1521 1520 1519 1518 1518 1519
1527 1525 1524 1524 1523 1523 1522 1522 1521 1521 1520 1519 1519 1519 1519 1518 1517 1517 1516 1515 1514 1513 1512 1511 1510 1509 1508 1507 1505 1504 1502 1501 1499 1497 1495 1493 1492 1490 1489 1488 1487 1486 1485 1484 1483 1482 1482 1482 1483 1483 1483 1483 1485 1487 1490 1493 1496 1498 1500 1502 1504 1506 1508 1510 1511 1513 1515 1516 1517 1518 1518 1518 1517 1518 1518 1519 1520 1520 1520 1520 1519 1518 1518 1519 1519
1527 1525 1525 1524 1523 1523 1522 1522 1521 1521 1520 1519 1519 1519 1519 1519 1518 1517 1517 1516 1515 1514 1513 1512 1511 1510 1509 1508 1507 1506 1504 1502 1500 1499 1497 1495 1493 1491 1490 1489 1488 1487 1486 1485 1484 1482 1482 1481 1482 1483 1482 1483 1485 1488 1491 1494 1497 1499 1501 1503 1505 1506 1508 1510 1512 1513 1515 1516 1517 1517 1517 1517 1517 1517 1518 1519 1520 1520 1519 1518 1518 1518 1518 1519 1519
1527 1525 1524 1524 1523 1522 1522 1521 1521 1520 1519 1519 1519 1520 1520 1519 1519 1518 1518 1517 1516 1515 1514 1513 1512 1512 1511 1510 1509 1507 1506 1504 1502 1501 1499 1497 1495 1493 1492 1490 1489 1488 1488 1486 1485 1484 1483 1482 1482 1483 1484 1485 1487 1490 1493 1495 1498 1500 1502 1504 1506 1507 1509 1511 1512 1513 1515 1516 1517 1517 1517 1516 1517 1517 1518 1519 1519 1518 1518 1518 1518 1518 1519 1519 1519
1527 1526 1525 1524 1523 1522 1522 1521 1521 1520 1519 1519 1519 1520 1520 1520 1520 1520 1519 1518 1517 1517 1516 1515 1514 1513 1512 1511 1510 1509 1507 1506 1504 1503 1501 1499 1498 1496 1494 1493 1492 1491 1490 1488 1487 1486 1485 1484 1485 1485 1486 1488 1489 1492 1495 1498 1500 1502 1504 1505 1507 1508 1510 1511 1512 1513 1515 1516 1516 1516 1516 1517 1517 1517 1518 1518 1518 1518 1518 1518 1518 1518 1518 1518 1519
1526 1526 1525 1524 1524 1523 1522 1522 1521 1521 1520 1519 1520 1521 1521 1521 1521 1521 1520 1519 1519 1518 1517 1516 1516 1515 1514 1513 1512 1510 1509 1507 1506 1505 1503 1502 1500 1499 1497 1496 1495 1494 1492 1491 1490 1489 1488 1488 1489 1489 1490 1491 1493 1495 1498 1500 1502 1504 1505 1507 1508 1509 1510 1511 1512 1514 1515 1516 1516 1516 1516 1516 1516 1517 1517 1517 1517 1518 1518 1518 1518 1517 1517 1518 1519
1526 1526 1525 1525 1524 1524 1523 1523 1522 1522 1521 1520 1521 1522 1522 1522 1522 1521 1521 1520 1520 1519 1518 1518 1517 1516 1516 1515 1514 1513 1512 1510 1509 1507 1506 1504 1503 1502 1501 1500 1498 1497 1496 1495 1494 1494 1494 1494 1494 1495 1495 1496 1498 1499 1501 1503 1504 1505 1506 1508 1509 1510 1511 1512 1513 1514 1514 1515 1515 1516 1516 1516 1516 1516 1516 1517 1517 1518 1518 1517 1517 1517 1517 1518 1519
1526 1526 1526 1525 1525 1524 1524 1523 1523 1523 1522 1522 1522 1523 1523 1523 1522 1522 1522 1521 1521 1520 1520 1519 1518 1518 1517 1516 1515 1515 1514 1512 1511 1510 1508 1507 1506 1505 1504 1503 1502 1501 1500 1499 1499 1499 1499 1499 1499 1500 1500 1501 1502 1503 1504 1505 1506 1507 1508 1508 1509 1510 1511 1512 1513 1513 1514 1514 1515 1516 1516 1516 1516 1516 1516 1516 1517 1517 1517 1518 1517 1517 1516 1517 1518
1526 1526 1526 1525 1525 1525 1524 1524 1524 1524 1523 1523 1523 1523 1523 1523 1523 1523 1523 1522 1522 1521 1521 1520 1519 1519 1518 1517 1516 1516 1515 1514 1513 1512 1511 1510 1509 1508 1507 1506 1505 1505 1504 1503 1503 1502 1502 1502 1503 1503 1503 1504 1505 1506 1507 1507 1508 1508 1509 1510 1511 1511 1512 1513 1513 1514 1514 1515 1516 1516 1517 1517 1517 1517 1516 1517 1517 1517 1518 1518 1518 1517 1516 1516 1516
1526 1526 1526 1526 1525 1525 1525 1524 1524 1524 1524 1524 1524 1524 1524 1524 1524 1523 1523 1523 1522 1522 1521 1521 1520 1520 1519 1518 1517 1517 1516 1515 1514 1513 1513 1512 1511 1510 1510 1509 1508 1508 1507 1506 1506 1505 1505 1505 1506 1506 1506 1507 1507 1508 1508 1509 1509 1510 1510 1511 1512 1512 1513 1514 1514 1515 1516 1516 1517 1517 1517 1517 1517 1517 1517 1517 1517 1518 1518 1518 1517 1516 1515 1515 1516
1525 1525 1525 1525 1525 1525 1525 1524 1524 1524 1524 1524 1524 1524 1524 1524 1524 1524 1523 1523 1522 1522 1522 1521 1521 1520 1520 1519 1518 1518 1517 1516 1516 1515 1514 1514 1513 1512 1512 1511 1510 1510 1509 1509 1509 1508 1508 1508 1508 1508 1509 1509 1510 1510 1510 1511 1511 1512 1512 1513 1513 1514 1515 1515 1516 1516 1517 1517 1517 1517 1517 1517 1517 1517 1518 1518 1518 1518 1518 1517 1516 1515 1515 1515 1515
1524 1524 1525 1525 1525 1525 1525 1524 1524 1524 1524 1524 1524 1524 1524 1524 1523 1523 1523 1523 1523 1522 1522 1522 1521 1521 1521 1520 1520 1519 1518 1518 1517 1516 1516 1515 1514 1514 1514 1513 1512 1512 1512 1511 1511 1511 1510 1510 1510 1511 1511 1511 1512 1512 1512 1513 1513 1514 1514 1515 1515 1516 1516 1517 1517 1517 1517 1518 1518 1518 1518 1518 1518 1518 1518 1518 1518 1518 1517 1516 1516 1515 1515 1515 1515